Monarch Pass, CO

2:40 AM MDT on May 27, 2017 (GMT -0600)
Monarch Pass

Weather History for KMYP - May, 2013

Change the Weather History Date:

Saturday, May 18, 2013

  Actual Average (KALS) Record (KALS)
Temperature  
Mean Temperature 35 °F -  
Max Temperature 42 °F 70 °F 85 °F (1970)
Min Temperature 28 °F 32 °F 21 °F (1978)
Degree Days  
Heating Degree Days 30    
Moisture  
Dew Point 21 °F    
Average Humidity 63    
Maximum Humidity 100    
Minimum Humidity 33    
Precipitation  
Precipitation 0.00 in - - ()
Sea Level Pressure  
Sea Level Pressure 30.33 in    
Wind  
Wind Speed 23 mph (WSW)    
Max Wind Speed 44 mph    
Max Gust Speed 55 mph    
Averages and records for this station are not official NWS values.
T = Trace of Precipitation, MM = Missing Value Source: NWS Daily Summary

Daily Weather History Graph

Daily Weather History Graph

Search for Another Location

Airport or City:

Trip Planner

Search our weather history database for the weather conditions in past years. The results will help you decide how hot, cold, wet, or windy it might be!

Date:

Astronomy

May. 18, 2013 Rise Set
Actual Time 5:51 AM MDT 8:11 PM MDT
Civil Twilight 5:21 AM MDT 8:41 PM MDT
Nautical Twilight 4:44 AM MDT 9:18 PM MDT
Astronomical Twilight 4:03 AM MDT 9:59 PM MDT
Moon 1:23 PM MDT (5/18) 1:38 AM MDT (5/18)
Length of Visible Light 15h 20m
Length of Day
14h 20m
First Quarter, 56% of the Moon is Illuminated
May 18
First Quarter
May 24
Full
May 31
Last Quarter
Jun 8
New
Jun 16
First Quarter

Hourly Weather History & Observations

Time (MDT) Temp. Windchill Dew Point Humidity Pressure Visibility Wind Dir Wind Speed Gust Speed Precip Events Conditions
12:12 AM 37.4 °F 25.9 °F 10.4 °F 33% 30.40 in - West 25.3 mph - N/A   Clear
12:32 AM 37.4 °F 25.2 °F 10.4 °F 33% 30.39 in - West 28.8 mph - N/A   Clear
12:52 AM 37.4 °F 26.4 °F 12.2 °F 36% 30.39 in - West 23.0 mph - N/A   Clear
1:12 AM 35.6 °F 24.5 °F 12.2 °F 38% 30.39 in - West 20.7 mph - N/A   Clear
1:32 AM 35.6 °F 23.7 °F 12.2 °F 38% 30.39 in - West 24.2 mph - N/A   Clear
1:52 AM 35.6 °F 23.4 °F 14.0 °F 41% 30.38 in - West 25.3 mph - N/A   Clear
2:12 AM 33.8 °F 21.0 °F 14.0 °F 44% 30.37 in - West 25.3 mph - N/A   Clear
2:32 AM 33.8 °F 21.9 °F 14.0 °F 44% 30.37 in - West 21.9 mph - N/A   Clear
2:52 AM 33.8 °F 22.8 °F 14.0 °F 44% 30.38 in - West 18.4 mph - N/A   Clear
3:12 AM 33.8 °F 22.5 °F 14.0 °F 44% 30.37 in - West 19.6 mph - N/A   Clear
3:32 AM 33.8 °F 21.3 °F 14.0 °F 44% 30.36 in - West 24.2 mph - N/A   Mostly Cloudy
3:52 AM 33.8 °F 21.6 °F 14.0 °F 44% 30.36 in - West 23.0 mph - N/A   Overcast
4:12 AM 33.8 °F 21.3 °F 14.0 °F 44% 30.36 in - West 24.2 mph - N/A   Mostly Cloudy
4:32 AM 33.8 °F 23.2 °F 14.0 °F 44% 30.36 in - West 17.3 mph 24.2 mph N/A   Mostly Cloudy
4:52 AM 33.8 °F 21.9 °F 15.8 °F 48% 30.36 in - West 21.9 mph 25.3 mph N/A   Scattered Clouds
5:12 AM 33.8 °F 21.6 °F 15.8 °F 48% 30.36 in - West 23.0 mph - N/A   Scattered Clouds
5:32 AM 32.0 °F 18.4 °F 17.6 °F 55% 30.37 in - West 26.5 mph - N/A   Mostly Cloudy
5:52 AM 33.8 °F 22.5 °F 15.8 °F 48% 30.37 in - WSW 19.6 mph - N/A   Overcast
6:12 AM 32.0 °F 19.8 °F 17.6 °F 55% 30.37 in - West 20.7 mph - N/A   Scattered Clouds
6:32 AM 33.8 °F 22.5 °F 17.6 °F 52% 30.37 in - West 19.6 mph - N/A   Clear
6:52 AM 33.8 °F 22.2 °F 17.6 °F 52% 30.37 in - West 20.7 mph - N/A   Scattered Clouds
7:12 AM 33.8 °F 22.2 °F 17.6 °F 52% 30.36 in - West 20.7 mph - N/A   Mostly Cloudy
7:32 AM 33.8 °F 21.9 °F 17.6 °F 52% 30.37 in - West 21.9 mph - N/A   Scattered Clouds
7:52 AM 33.8 °F 23.2 °F 19.4 °F 56% 30.38 in - WSW 17.3 mph - N/A   Mostly Cloudy
8:12 AM 35.6 °F 24.2 °F 19.4 °F 52% 30.37 in - West 21.9 mph 27.6 mph N/A   Overcast
8:32 AM 35.6 °F 24.0 °F 19.4 °F 52% 30.36 in - WSW 23.0 mph 32.2 mph N/A   Overcast
8:52 AM 33.8 °F 20.5 °F 19.4 °F 56% 30.37 in - WSW 27.6 mph 36.8 mph N/A   Overcast
9:12 AM 35.6 °F 23.7 °F 21.2 °F 56% 30.37 in - WSW 24.2 mph 34.5 mph N/A   Mostly Cloudy
9:32 AM 35.6 °F 22.3 °F 21.2 °F 56% 30.37 in - West 31.1 mph 38.0 mph N/A   Scattered Clouds
9:52 AM 33.8 °F 20.5 °F 23.0 °F 65% 30.37 in - West 27.6 mph - N/A   Clear
10:12 AM 35.6 °F 25.2 °F 23.0 °F 60% 30.37 in - WSW 18.4 mph 27.6 mph N/A   Clear
10:32 AM 35.6 °F 25.9 °F 23.0 °F 60% 30.37 in - West 16.1 mph 24.2 mph N/A   Clear
10:52 AM 35.6 °F 26.6 °F 23.0 °F 60% 30.37 in - WSW 13.8 mph - N/A   Scattered Clouds
11:12 AM 37.4 °F 28.5 °F 24.8 °F 60% 30.36 in - WSW 15.0 mph 21.9 mph N/A   Scattered Clouds
11:32 AM 39.2 °F 29.8 °F 21.2 °F 49% 30.35 in - WSW 18.4 mph 25.3 mph N/A   Scattered Clouds
11:52 AM 37.4 °F 28.2 °F 21.2 °F 52% 30.35 in - West 16.1 mph 31.1 mph N/A   Scattered Clouds
12:12 PM 41.0 °F 31.1 °F 21.2 °F 45% 30.34 in - WSW 23.0 mph 29.9 mph N/A   Mostly Cloudy
12:32 PM 42.8 °F 34.0 °F 21.2 °F 42% 30.34 in - SW 20.7 mph 27.6 mph N/A   Scattered Clouds
1:12 PM 42.8 °F 34.3 °F 21.2 °F 42% 30.32 in - West 19.6 mph 29.9 mph N/A   Mostly Cloudy
1:32 PM 42.8 °F 33.5 °F 21.2 °F 42% 30.32 in - SW 23.0 mph 31.1 mph N/A   Mostly Cloudy
1:52 PM 42.8 °F 35.4 °F 21.2 °F 42% 30.31 in - SW 15.0 mph 29.9 mph N/A   Overcast
2:12 PM 42.8 °F 34.0 °F 19.4 °F 39% 30.31 in - SW 20.7 mph 27.6 mph N/A   Overcast
2:32 PM 41.0 °F 31.9 °F 21.2 °F 45% 30.30 in - SSW 19.6 mph 27.6 mph N/A   Overcast
2:52 PM 39.2 °F 27.2 °F 19.4 °F 45% 30.31 in - WSW 31.1 mph 40.3 mph N/A   Overcast
3:12 PM 35.6 °F 28.0 °F 26.6 °F 70% 30.33 in - SW 10.4 mph 27.6 mph N/A   Overcast
3:32 PM 37.4 °F 28.2 °F 23.0 °F 56% 30.31 in - West 16.1 mph 21.9 mph N/A   Overcast
4:12 PM 37.4 °F 25.0 °F 23.0 °F 56% 30.31 in - WNW 29.9 mph 40.3 mph N/A Thunderstorm Thunderstorm
4:32 PM 32.0 °F 22.5 °F 28.4 °F 87% 30.33 in - WNW 12.7 mph 31.1 mph N/A Thunderstorm Thunderstorm
4:52 PM 32.0 °F 20.5 °F 26.6 °F 80% 30.32 in - West 18.4 mph 28.8 mph N/A   Overcast
5:12 PM 32.0 °F 20.5 °F 28.4 °F 87% 30.30 in - WSW 18.4 mph - N/A Thunderstorm Thunderstorm
5:32 PM 33.8 °F 21.3 °F 28.4 °F 81% 30.30 in - WSW 24.2 mph 28.8 mph N/A Thunderstorm Thunderstorm
5:52 PM 33.8 °F 21.9 °F 26.6 °F 75% 30.30 in - WSW 21.9 mph 28.8 mph N/A Thunderstorm Thunderstorm
6:12 PM 35.6 °F 24.2 °F 26.6 °F 70% 30.29 in - SW 21.9 mph 29.9 mph N/A Thunderstorm Thunderstorm
6:32 PM 32.0 °F 15.2 °F 28.4 °F 87% 30.28 in - West 43.7 mph 51.8 mph N/A   Overcast
6:52 PM 30.2 °F 13.3 °F 28.4 °F 93% 30.29 in - West 40.3 mph 55.2 mph N/A   Overcast
7:12 PM 30.2 °F - 28.4 °F 93% 30.29 in - North - - N/A   Overcast
7:32 PM 28.4 °F - 28.4 °F 100% 30.29 in - North - - N/A   Overcast
7:52 PM 28.4 °F - 28.4 °F 100% 30.29 in - North - - N/A   Overcast
8:12 PM 28.4 °F - 28.4 °F 100% 30.29 in - North - - N/A   Overcast
8:32 PM 28.4 °F - 28.4 °F 100% 30.27 in - North - - N/A   Unknown
8:52 PM 28.4 °F - 26.6 °F 93% 30.26 in - North - - N/A   Unknown
9:12 PM 28.4 °F - 26.6 °F 93% 30.25 in - North - - N/A   Unknown
9:32 PM 28.4 °F - 28.4 °F 100% 30.26 in - North - - N/A   Mostly Cloudy
9:52 PM 28.4 °F - 28.4 °F 100% 30.24 in - North - - N/A   Overcast
10:12 PM 28.4 °F - 26.6 °F 93% 30.24 in - North - - N/A   Overcast
10:32 PM 28.4 °F - 26.6 °F 93% 30.24 in - North - - N/A   Mostly Cloudy
10:52 PM 28.4 °F - 26.6 °F 93% 30.24 in - North - - N/A   Overcast
11:12 PM 28.4 °F - 26.6 °F 93% 30.25 in - North - - N/A   Overcast
11:32 PM 28.4 °F - 26.6 °F 93% 30.25 in - North - - N/A   Overcast
11:52 PM 28.4 °F - 26.6 °F 93% 30.24 in - North - - N/A   Overcast